Wilmington, OH

9:26 PM EDT on April 24, 2018 (GMT -0400)
Airborne

Weather History for KILN - April, 2013

Change the Weather History Date:

Tuesday, April 9, 2013

  Actual Average (KFFO) Record (KFFO)
Temperature  
Mean Temperature 65 °F -  
Max Temperature 81 °F 60 °F 86 °F (2001)
Min Temperature 50 °F 38 °F 17 °F (1997)
Growing Degree Days 15 (Base 50)    
Moisture  
Dew Point 53 °F    
Average Humidity 64    
Maximum Humidity 89    
Minimum Humidity 40    
Precipitation  
Precipitation 0.00 in - - ()
Sea Level Pressure  
Sea Level Pressure 29.99 in    
Wind  
Wind Speed 8 mph (SSW)    
Max Wind Speed 25 mph    
Max Gust Speed 33 mph    
Visibility 10 miles    
Events      
Averages and records for this station are not official NWS values.
T = Trace of Precipitation, MM = Missing Value Source: NWS Daily Summary

Daily Weather History Graph

Daily Weather History Graph

Search for Another Location

Airport or City:

Astronomy

Apr. 09, 2013 Rise Set
Actual Time 7:06 AM EDT 8:07 PM EDT
Civil Twilight 6:39 AM EDT 8:34 PM EDT
Nautical Twilight 6:06 AM EDT 9:07 PM EDT
Astronomical Twilight 5:32 AM EDT 9:41 PM EDT
Moon 6:28 AM EDT (4/9) 7:41 PM EDT (4/9)
Length of Visible Light 13h 55m
Length of Day
13h 00m
Waning Crescent, 1% of the Moon is Illuminated
Apr 9
Waning Crescent
Apr 10
New
Apr 18
First Quarter
Apr 25
Full
May 2
Last Quarter

Hourly Weather History & Observations

Time (EDT) Temp. Heat Index Dew Point Humidity Pressure Visibility Wind Dir Wind Speed Gust Speed Precip Events Conditions
12:54 AM 57.9 °F - 51.1 °F 78% 30.01 in 10.0 mi SW 3.5 mph - N/A   Clear
1:54 AM 55.0 °F - 50.0 °F 83% 30.01 in 10.0 mi SSW 8.1 mph - N/A   Clear
2:54 AM 57.9 °F - 51.1 °F 78% 30.01 in 10.0 mi SW 3.5 mph - N/A   Clear
3:54 AM 55.9 °F - 50.0 °F 80% 30.02 in 10.0 mi Calm Calm - N/A   Clear
4:54 AM 54.0 °F - 50.0 °F 86% 30.04 in 10.0 mi Calm Calm - N/A   Clear
5:54 AM 50.0 °F - 46.9 °F 89% 30.05 in 10.0 mi Calm Calm - N/A   Clear
6:54 AM 52.0 °F - 48.9 °F 89% 30.06 in 10.0 mi SE 3.5 mph - N/A   Mostly Cloudy
7:54 AM 53.1 °F - 50.0 °F 89% 30.07 in 10.0 mi SSE 4.6 mph - N/A   Scattered Clouds
8:54 AM 62.1 °F - 54.0 °F 75% 30.06 in 10.0 mi South 4.6 mph - N/A   Scattered Clouds
9:54 AM 66.0 °F - 54.0 °F 65% 30.06 in 10.0 mi SSW 10.4 mph - N/A   Overcast
10:54 AM 71.1 °F - 55.0 °F 57% 30.05 in 10.0 mi SW 17.3 mph 23.0 mph N/A   Mostly Cloudy
11:54 AM 75.0 °F - 57.0 °F 53% 30.03 in 10.0 mi SSW 15.0 mph - N/A   Clear
12:54 PM 77.0 °F - 57.9 °F 52% 29.99 in 10.0 mi SSW 17.3 mph 29.9 mph N/A   Scattered Clouds
1:54 PM 79.0 °F - 55.9 °F 45% 29.97 in 10.0 mi SSW 20.7 mph 29.9 mph N/A   Partly Cloudy
2:54 PM 80.1 °F 80.1 °F 55.0 °F 42% 29.95 in 10.0 mi SSW 25.3 mph 32.2 mph N/A   Scattered Clouds
3:54 PM 80.1 °F 80.0 °F 54.0 °F 40% 29.91 in 10.0 mi SSW 20.7 mph 33.4 mph N/A   Partly Cloudy
4:54 PM 80.1 °F 80.0 °F 54.0 °F 40% 29.91 in 10.0 mi SSW 23.0 mph 28.8 mph N/A   Clear
5:54 PM 78.1 °F - 52.0 °F 40% 29.94 in 10.0 mi SSW 20.7 mph 32.2 mph N/A   Clear
6:54 PM 77.0 °F - 54.0 °F 45% 29.94 in 10.0 mi SW 15.0 mph - N/A   Clear
7:54 PM 73.0 °F - 53.1 °F 49% 29.94 in 10.0 mi SSW 10.4 mph - N/A   Clear
8:54 PM 68.0 °F - 53.1 °F 59% 29.96 in 10.0 mi South 5.8 mph - N/A   Clear
9:54 PM 66.0 °F - 54.0 °F 65% 29.96 in 10.0 mi SSW 8.1 mph - N/A   Clear
10:54 PM 66.0 °F - 55.0 °F 68% 29.96 in 10.0 mi SSW 9.2 mph - N/A   Clear
11:54 PM 64.9 °F - 55.9 °F 73% 29.96 in 10.0 mi SW 11.5 mph - N/A   Clear